Trieste, Italy

6:58 AM CET on March 25, 2017 (GMT +0100)
Trieste

Weather History for LIVT - October, 2012

Change the Weather History Date:

Saturday, October 6, 2012

  Actual Average Record
Temperature  
Mean Temperature 68 °F -  
Max Temperature 74 °F 63 °F 77 °F (2011)
Min Temperature 62 °F 53 °F 47 °F (2016)
Cooling Degree Days 3    
Growing Degree Days 18 (Base 50)    
Moisture  
Dew Point 61 °F    
Average Humidity 78    
Maximum Humidity 88    
Minimum Humidity 62    
Precipitation  
Precipitation 0.00 in 0.12 in - ()
Sea Level Pressure  
Sea Level Pressure 30.09 in    
Wind  
Wind Speed 1 mph ()    
Max Wind Speed 4 mph    
Max Gust Speed -    
Visibility 6.7 miles    
Events      
Averages and records for this station are not official NWS values.
T = Trace of Precipitation, MM = Missing Value Source: Averaged Metar Reports

Daily Weather History Graph

Daily Weather History Graph

Search for Another Location

Airport or City:

Trip Planner

Search our weather history database for the weather conditions in past years. The results will help you decide how hot, cold, wet, or windy it might be!

Date:

Astronomy

Oct. 06, 2012 Rise Set
Actual Time 7:09 AM CEST 6:35 PM CEST
Civil Twilight 6:40 AM CEST 7:04 PM CEST
Nautical Twilight 6:05 AM CEST 7:39 PM CEST
Astronomical Twilight 5:31 AM CEST 8:13 PM CEST
Moon 10:21 PM CEST (10/6) 1:05 PM CEST (10/6)
Length of Visible Light 12h 24m
Length of Day
11h 25m
Waning Gibbous, 68% of the Moon is Illuminated
Oct 6
Waning Gibbous
Oct 8
Last Quarter
Oct 15
New
Oct 22
First Quarter
Oct 29
Full

Hourly Weather History & Observations

Time (CEST) Temp. Dew Point Humidity Pressure Visibility Wind Dir Wind Speed Gust Speed Precip Events Conditions
12:55 AM 62.6 °F 59.0 °F 88% 30.12 in - ENE 3.5 mph - N/A   Clear
1:55 AM 62.6 °F 59.0 °F 88% 30.12 in - ENE 2.3 mph - N/A   Clear
2:00 AM 63 °F 59 °F 83% 30.14 in 12 mi ENE 2.3 mph - -  
4:55 AM 64.4 °F 59.0 °F 83% 30.12 in - Calm Calm - N/A   Clear
5:55 AM 66.2 °F 59.0 °F 78% 30.09 in - East 1.2 mph - N/A   Clear
6:55 AM 66.2 °F 59.0 °F 78% 30.09 in - East 1.2 mph - N/A   Clear
7:55 AM 66.2 °F 59.0 °F 78% 30.09 in 6.2 mi East 2.3 mph - N/A   Scattered Clouds
8:00 AM 65 °F 59 °F 74% 30.11 in 6 mi East 2.3 mph - -   Scattered Clouds
8:55 AM 66.2 °F 59.0 °F 78% 30.09 in 6.2 mi Calm Calm - N/A   Scattered Clouds
9:55 AM 69.8 °F 60.8 °F 73% 30.09 in 6.2 mi Calm Calm - N/A   Scattered Clouds
10:55 AM 69.8 °F 60.8 °F 73% 30.09 in 6.2 mi Calm Calm - N/A   Scattered Clouds
11:55 AM 71.6 °F 60.8 °F 69% 30.12 in 6.2 mi Calm Calm - N/A   Scattered Clouds
12:55 PM 71.6 °F 60.8 °F 69% 30.12 in 6.2 mi West 1.2 mph - N/A   Scattered Clouds
1:55 PM 71.6 °F 60.8 °F 69% 30.09 in 6.2 mi Calm Calm - N/A   Scattered Clouds
2:00 PM 72 °F 62 °F 62% 30.12 in 6 mi Calm Calm - -   Overcast
4:55 PM 73.4 °F 64.4 °F 73% 30.06 in - Calm Calm - N/A   Clear
5:55 PM 71.6 °F 64.4 °F 78% 30.04 in - Calm Calm - N/A   Clear
6:55 PM 69.8 °F 64.4 °F 83% 30.04 in - Calm Calm - N/A   Clear
7:55 PM 68.0 °F 62.6 °F 83% 30.06 in - SSE 2.3 mph - N/A   Clear
8:00 PM 68 °F 63 °F 80% 30.08 in 6 mi SSE 2.3 mph - -   Partly Cloudy
8:55 PM 66.2 °F 62.6 °F 88% 30.06 in - ENE 1.2 mph - N/A   Clear
9:55 PM 64.4 °F 60.8 °F 88% 30.06 in - ENE 2.3 mph - N/A   Clear
10:55 PM 64.4 °F 59.0 °F 83% 30.06 in - East 2.3 mph - N/A   Clear
11:55 PM 64.4 °F 59.0 °F 83% 30.06 in - East 2.3 mph - N/A   Clear